Date String (YYYY-MM-DD hh:mm:ss) UTC,Instrument flags,Ambient pressure (hPa),Sample flow (lpm),Bypass flow (lpm),Sample temperature (°C),Ambient temperature (°C),ASC tube jacket temperature (°C),LED temperature (°C),Box temperature (°C),Sample RH (%),Span deviation,Mass concentration (μg/m³),Mass concentration (μg/m³),Mass concentration (μg/m³)
DateTimeUTC,F1_M11,P_M11,Q1_M11,Q2_M11,T1_M11,T2_M11,T3_M11,T4_M11,T5_M11,U1_M11,ZSPAN_M11,X2_M11,X0_M11,X1_M11
2022-04-15 21:00:00,,0818.8,4.99,0.00,25.8,25.1,00.0,34.8,27.6,09.5,0000.0,0003.71,0008.58,0002.19
2022-04-15 21:01:00,,0818.8,5.00,0.00,25.8,25.1,00.0,34.8,27.6,09.6,0000.0,0003.69,0008.42,0002.17
2022-04-15 21:02:00,,0818.7,5.01,0.00,25.8,25.1,00.0,34.7,27.6,09.6,0000.0,0003.67,0007.90,0002.15
2022-04-15 21:03:00,,0818.8,4.99,0.00,25.8,25.2,00.0,34.8,27.7,09.7,0000.0,0003.69,0007.99,0002.14
2022-04-15 21:04:00,,0818.8,4.99,0.00,25.8,25.2,00.0,34.8,27.7,09.6,0000.0,0003.70,0008.00,0002.13
2022-04-15 21:05:00,,0818.8,5.01,0.00,25.9,25.2,00.0,34.8,27.7,09.8,0000.0,0003.70,0008.97,0002.11
2022-04-15 21:06:00,,0818.8,5.00,0.00,25.9,25.3,00.0,34.8,27.7,09.8,0000.0,0003.70,0009.11,0002.11
2022-04-15 21:07:00,,0819.0,4.99,0.00,25.9,25.3,00.0,34.8,27.8,09.6,0000.0,0003.75,0009.89,0002.11
2022-04-15 21:08:00,,0819.0,5.00,0.00,26.0,25.4,00.0,34.8,27.8,09.7,0000.0,0003.75,0010.33,0002.11
2022-04-15 21:09:00,,0818.9,5.01,0.00,26.0,25.4,00.0,34.8,27.9,09.7,0000.0,0003.75,0010.36,0002.10
2022-04-15 21:10:00,,0818.9,5.00,0.00,26.0,25.5,00.0,34.9,27.9,09.9,0000.0,0003.76,0010.57,0002.08
2022-04-15 21:11:00,,0819.0,5.01,0.00,26.1,25.5,00.0,34.9,28.0,09.7,0000.0,0003.75,0010.63,0002.07
2022-04-15 21:12:00,,0819.0,4.99,0.00,26.1,25.5,00.0,34.9,28.0,09.8,0000.0,0003.77,0011.44,0002.08
2022-04-15 21:13:00,,0818.9,5.01,0.00,26.1,25.6,00.0,34.9,28.0,09.7,0000.0,0003.80,0011.57,0002.10
2022-04-15 21:14:00,,0818.9,5.00,0.00,26.2,25.6,00.0,34.9,28.0,09.3,0000.0,0003.79,0011.57,0002.10
2022-04-15 21:15:00,,0818.9,4.99,0.00,26.2,25.6,00.0,35.0,28.1,09.4,0000.0,0003.72,0011.47,0002.08
2022-04-15 21:16:00,,0819.0,5.00,0.00,26.2,25.7,00.0,35.0,28.1,09.9,0000.0,0003.66,0010.45,0002.06
2022-04-15 21:17:00,,0818.9,5.02,0.00,26.2,25.7,00.0,35.0,28.1,09.5,0000.0,0003.64,0010.38,0002.06
2022-04-15 21:18:00,,0818.8,5.00,0.00,26.3,25.7,00.0,35.0,28.1,10.3,0000.0,0003.62,0009.63,0002.06
2022-04-15 21:19:00,,0818.8,4.99,0.00,26.3,25.7,00.0,35.0,28.1,10.7,0000.0,0003.64,0009.30,0002.06
2022-04-15 21:20:00,,0818.8,4.99,0.00,26.3,25.8,00.0,35.1,28.2,10.8,0000.0,0003.63,0009.12,0002.08
2022-04-15 21:21:00,,0818.8,5.01,0.00,26.3,25.8,00.0,35.1,28.2,10.9,0000.0,0003.61,0008.95,0002.07
2022-04-15 21:22:00,,0818.8,5.00,0.00,26.4,25.8,00.0,35.1,28.2,10.5,0000.0,0003.59,0008.81,0002.07
2022-04-15 21:23:00,,0818.8,5.00,0.00,26.4,25.8,00.0,35.1,28.3,10.2,0000.0,0003.58,0008.39,0002.08
2022-04-15 21:24:00,,0818.9,4.99,0.00,26.4,25.8,00.0,35.2,28.3,10.0,0000.0,0003.55,0008.50,0002.08
2022-04-15 21:25:00,,0818.9,5.01,0.00,26.4,25.8,00.0,35.2,28.4,09.9,0000.0,0003.54,0008.49,0002.08
2022-04-15 21:26:00,,0818.9,4.99,0.00,26.5,25.8,00.0,35.2,28.4,10.1,0000.0,0003.59,0008.80,0002.08
2022-04-15 21:27:00,,0818.9,5.00,0.00,26.5,25.9,00.0,35.2,28.4,10.0,0000.0,0003.63,0008.90,0002.11
2022-04-15 21:28:00,,0818.9,5.00,0.00,26.5,25.9,00.0,35.3,28.4,10.0,0000.0,0003.59,0008.85,0002.10
2022-04-15 21:29:00,,0818.9,5.01,0.00,26.5,25.9,00.0,35.3,28.4,10.0,0000.0,0003.60,0009.52,0002.11
2022-04-15 21:30:00,,0818.9,4.99,0.00,26.6,25.9,00.0,35.3,28.4,10.1,0000.0,0003.61,0009.99,0002.11
2022-04-15 21:31:00,,0818.8,5.00,0.00,26.6,26.0,00.0,35.3,28.4,10.0,0000.0,0003.58,0010.31,0002.09
2022-04-15 21:32:00,,0818.8,4.99,0.00,26.6,26.0,00.0,35.3,28.5,10.0,0000.0,0003.59,0010.29,0002.10
2022-04-15 21:33:00,,0818.8,5.02,0.00,26.6,26.0,00.0,35.4,28.5,10.0,0000.0,0003.59,0010.25,0002.08
2022-04-15 21:34:00,,0818.8,5.00,0.00,26.6,26.1,00.0,35.4,28.5,09.7,0000.0,0003.56,0009.89,0002.06
2022-04-15 21:35:00,,0818.8,4.99,0.00,26.7,26.1,00.0,35.4,28.5,09.8,0000.0,0003.55,0009.64,0002.05
2022-04-15 21:36:00,,0818.8,5.00,0.00,26.7,26.1,00.0,35.4,28.6,09.9,0000.0,0003.55,0009.75,0002.04
2022-04-15 21:37:00,,0818.8,5.00,0.00,26.7,26.1,00.0,35.5,28.6,09.5,0000.0,0003.52,0009.95,0002.03
2022-04-15 21:38:00,,0818.8,5.01,0.00,26.7,26.1,00.0,35.5,28.6,09.3,0000.0,0003.54,0009.97,0002.02
2022-04-15 21:39:00,,0818.9,4.99,0.00,26.8,26.1,00.0,35.5,28.7,09.3,0000.0,0003.58,0009.97,0002.04
2022-04-15 21:40:00,,0819.0,4.99,0.00,26.8,26.2,00.0,35.5,28.7,09.6,0000.0,0003.60,0009.31,0002.04
2022-04-15 21:41:00,,0818.9,5.01,0.00,26.8,26.2,00.0,35.5,28.7,09.5,0000.0,0003.56,0008.76,0002.04
2022-04-15 21:42:00,,0819.0,5.00,0.00,26.8,26.2,00.0,35.5,28.7,09.5,0000.0,0003.56,0008.55,0002.05
2022-04-15 21:43:00,,0819.0,4.99,0.00,26.8,26.2,00.0,35.6,28.7,09.7,0000.0,0003.57,0008.55,0002.05
2022-04-15 21:44:00,,0819.0,5.00,0.00,26.8,26.2,00.0,35.6,28.7,09.8,0000.0,0003.58,0009.15,0002.05
2022-04-15 21:45:00,,0819.1,5.01,0.00,26.8,26.2,00.0,35.6,28.7,09.8,0000.0,0003.60,0011.06,0002.05
2022-04-15 21:46:00,,0819.1,5.00,0.00,26.8,26.2,00.0,35.6,28.7,10.0,0000.0,0003.59,0012.00,0002.04
2022-04-15 21:47:00,,0819.3,5.02,0.00,26.8,26.2,00.0,35.6,28.7,09.3,0000.0,0003.64,0012.25,0002.05
2022-04-15 21:48:00,,0819.1,4.99,0.00,26.8,26.2,00.0,35.6,28.7,09.0,0000.0,0003.69,0011.95,0002.08
2022-04-15 21:49:00,,0819.1,5.00,0.00,26.9,26.2,00.0,35.7,28.7,09.2,0000.0,0003.76,0011.99,0002.11
2022-04-15 21:50:00,,0819.0,5.00,0.00,26.9,26.2,00.0,35.7,28.7,10.1,0000.0,0003.94,0012.93,0002.27
2022-04-15 21:51:00,,0819.1,5.00,0.00,26.9,26.2,00.0,35.7,28.7,10.4,0000.0,0004.13,0015.11,0002.54
2022-04-15 21:52:00,,0819.1,4.99,0.00,26.9,26.2,00.0,35.7,28.8,10.5,0000.0,0004.38,0016.42,0002.82
2022-04-15 21:53:00,,0819.1,4.99,0.00,26.9,26.2,00.0,35.7,28.8,10.7,0000.0,0004.62,0018.14,0003.11
2022-04-15 21:54:00,,0819.2,5.02,0.00,26.9,26.3,00.0,35.7,28.8,10.3,0000.0,0004.87,0019.78,0003.29
2022-04-15 21:55:00,,0819.2,4.99,0.00,26.9,26.3,00.0,35.7,28.8,10.2,0000.0,0005.16,0021.17,0003.45
2022-04-15 21:56:00,,0819.2,5.00,0.00,26.9,26.3,00.0,35.7,28.8,10.2,0000.0,0005.42,0020.16,0003.62
2022-04-15 21:57:00,,0819.2,5.00,0.00,27.0,26.3,00.0,35.8,28.9,10.2,0000.0,0005.65,0019.49,0003.79
2022-04-15 21:58:00,,0819.2,5.02,0.00,27.0,26.4,00.0,35.8,28.9,10.3,0000.0,0005.78,0020.36,0003.93
2022-04-15 21:59:00,,0819.3,5.00,0.00,27.0,26.4,00.0,35.8,28.9,10.4,0000.0,0005.96,0022.02,0004.06
